Location: Zagreb
(45.8000°N, 16.0000°E)
Time: 20:49:07
(UTC+01:00)

CUTE-I - Pass Details

Date: 02 November 2020
Orbit: 811 x 824 km, 98.7° (Epoch: 01 December)

Event Time Altitude Azimuth Distance (km) Brightness Sun altitude
Rises 18:54:27 0° 216° (SW) 3,321 ? -23.7°
Reaches altitude 10° 18:58:03 10° 242° (WSW) 2,396 ? -24.4°
Maximum altitude 19:00:41 14° 272° (W) 2,145 ? -24.8°
Drops below altitude 10° 19:03:19 10° 302° (WNW) 2,407 ? -25.3°
Sets 19:06:58 0° 328° (NNW) 3,348 ? -25.9°
